This demonstration page uses our WeatherBlox Daily Observations layout. Learn more.

Hourly Observations for August 18, 2019

Temp ( °F °C ) Dew Point ( °F °C ) Humidity (%) Winds ( mph kmh ) Pressure ( in mb ) Visibility ( mi km ) Precip ( " mm )
12:15 am 00:15 Clear 73 22.5 71 21.6 95 95 S 5 7 29.62 1003 10 16.09344 0 0
12:35 am 00:35 Clear 71 21.8 69 20.8 94 94 Calm 29.59 1002 10 16.09344 0 0
12:55 am 00:55 Clear 70 20.9 69 20.6 98 98 Calm 29.59 1002 10 16.09344 0 0
1:15 am 01:15 Clear 70 21.1 69 20.5 96 96 Calm 29.59 1002 10 16.09344 0 0
1:35 am 01:35 Clear 69 20.7 69 20.4 98 98 Calm 29.59 1002 10 16.09344 0 0
1:55 am 01:55 Clear 68 20.1 66 18.9 93 93 Calm 29.65 1004 10 16.09344 0 0
2:15 am 02:15 Clear 69 20.8 62 16.8 78 78 WSW 6 9 29.65 1004 10 16.09344 0 0
2:35 am 02:35 Clear 69 20.6 61 16.1 76 76 W 7 11 29.68 1005 10 16.09344 0 0
2:50 am 02:50 Clear 68 20.1 61 16.1 78 78 W 7 11 29.68 1005 10 16.09344 0 0
3:15 am 03:15 Clear 70 21.1 58 14.5 66 66 WNW 6 9 29.65 1004 10 16.09344 0 0
3:35 am 03:35 Clear 67 19.5 60 15.5 78 78 NNW 9 15 29.68 1005 10 16.09344 0 0
3:55 am 03:55 Partly Cloudy 65 18.6 64 17.7 95 95 N 6 9 29.71 1006 10 16.09344 0 0
4:15 am 04:15 Mostly Cloudy 65 18.6 65 18.2 98 98 N 7 11 29.71 1006 10 16.09344 0 0
4:35 am 04:35 Cloudy 65 18.5 64 17.9 96 96 N 13 20 29.71 1006 10 16.09344 0 0
4:55 am 04:55 Partly Cloudy 64 17.7 63 17.2 97 97 N 13 20 29.71 1006 10 16.09344 0 0
5:15 am 05:15 Clear 63 17.2 62 16.8 98 98 N 10 17 29.74 1007 10 16.09344 0 0
5:35 am 05:35 Mostly Cloudy 63 17.2 62 16.7 97 97 N 13 20 29.74 1007 10 16.09344 0 0
5:55 am 05:55 Cloudy 63 17.1 62 16.6 97 97 N 10 17 29.77 1008 10 16.09344 0 0
6:15 am 06:15 Cloudy 63 17 62 16.6 98 98 N 7 11 29.77 1008 10 16.09344 0 0
6:35 am 06:35 Cloudy 63 17.1 62 16.7 98 98 NNW 9 15 29.8 1009 10 16.09344 0 0
6:55 am 06:55 Cloudy 63 17.3 62 16.5 95 95 NNW 7 11 29.83 1010 10 16.09344 0 0
7:15 am 07:15 Cloudy 63 17.3 62 16.5 95 95 N 9 15 29.85 1011 10 16.09344 0 0
7:35 am 07:35 Cloudy 63 17.2 61 16.3 94 94 N 7 11 29.85 1011 10 16.09344 0 0
7:55 am 07:55 Cloudy 64 17.5 62 16.5 94 94 NNW 3 6 29.85 1011 10 16.09344 0 0
8:15 am 08:15 Cloudy 64 17.5 61 16.3 93 93 NNW 8 13 29.88 1012 10 16.09344 0 0
8:35 am 08:35 Cloudy 64 17.6 62 16.4 93 93 N 8 13 29.91 1013 10 16.09344 0 0
8:55 am 08:55 Cloudy 64 17.8 62 16.4 92 92 N 9 15 29.91 1013 10 16.09344 0 0
9:15 am 09:15 Cloudy 64 18 61 16.3 90 90 N 8 13 29.91 1013 10 16.09344 0 0
9:35 am 09:35 Cloudy 65 18.2 61 16.2 88 88 N 8 13 29.91 1013 10 16.09344 0 0
9:55 am 09:55 Cloudy 65 18.6 61 16.1 85 85 NNE 13 20 29.91 1013 10 16.09344 0 0
10:15 am 10:15 Cloudy 68 19.8 62 16.5 81 81 N 12 19 29.88 1012 10 16.09344 0 0
10:35 am 10:35 Cloudy 67 19.7 62 16.5 82 82 N 12 19 29.88 1012 10 16.09344 0 0
10:55 am 10:55 Mostly Cloudy 68 20 62 16.7 81 81 N 10 17 29.88 1012 10 16.09344 0 0
11:15 am 11:15 Mostly Cloudy 69 20.4 62 16.8 80 80 N 10 17 29.88 1012 10 16.09344 0 0
11:35 am 11:35 Mostly Cloudy 70 21.3 63 17.3 78 78 NNE 9 15 29.88 1012 10 16.09344 0 0
11:55 am 11:55 Mostly Cloudy 71 21.7 63 17 75 75 N 6 9 29.88 1012 10 16.09344 0 0
12:15 pm 12:15 Mostly Cloudy 72 22.2 64 17.6 75 75 NNE 7 11 29.88 1012 10 16.09344 0 0
12:35 pm 12:35 Mostly Cloudy 72 22.1 63 17.3 74 74 NE 7 11 29.88 1012 10 16.09344 0 0
12:55 pm 12:55 Mostly Cloudy 72 22.3 63 17.2 73 73 NE 6 9 29.88 1012 10 16.09344 0 0
1:15 pm 13:15 Mostly Cloudy 72 22.4 63 17.1 72 72 ENE 5 7 29.88 1012 10 16.09344 0 0
1:35 pm 13:35 Mostly Cloudy 73 22.6 64 17.9 75 75 NNE 5 7 29.88 1012 10 16.09344 0 0
1:55 pm 13:55 Partly Cloudy 74 23.3 65 18.2 73 73 E 6 9 29.85 1011 10 16.09344 0 0
2:15 pm 14:15 Mostly Cloudy 73 23 64 17.8 73 73 NNW 3 6 29.85 1011 10 16.09344 0 0
2:35 pm 14:35 Cloudy 73 23 64 17.8 73 73 Calm 29.85 1011 10 16.09344 0 0
2:55 pm 14:55 Cloudy 74 23.3 65 18.2 73 73 ENE 6 9 29.83 1010 10 16.09344 0 0
3:15 pm 15:15 Cloudy 74 23.5 64 18 71 71 Calm 29.85 1011 10 16.09344 0 0
3:35 pm 15:35 Mostly Cloudy 75 23.8 65 18.3 71 71 Calm 29.83 1010 10 16.09344 0 0
3:55 pm 15:55 Mostly Cloudy 76 24.7 66 18.8 70 70 WNW 3 6 29.83 1010 10 16.09344 0 0
4:15 pm 16:15 Partly Cloudy 76 24.6 65 18.4 68 68 Calm 29.83 1010 10 16.09344 0 0
4:35 pm 16:35 Mostly Cloudy 76 24.5 65 18.1 68 68 Calm 29.83 1010 10 16.09344 0 0
4:55 pm 16:55 Partly Cloudy 77 25.2 64 18 64 64 Calm 29.83 1010 10 16.09344 0 0
5:15 pm 17:15 Partly Cloudy 78 25.5 66 18.7 66 66 SSE 5 7 29.83 1010 10 16.09344 0 0
5:35 pm 17:35 Partly Cloudy 78 25.3 65 18.5 66 66 Calm 29.8 1009 10 16.09344 0 0
5:55 pm 17:55 Partly Cloudy 77 25.1 65 18.6 67 67 Calm 29.8 1009 10 16.09344 0 0
6:15 pm 18:15 Sunny 78 25.3 66 18.8 67 67 Calm 29.8 1009 10 16.09344 0 0
6:35 pm 18:35 Sunny 78 25.3 66 19.1 69 69 Calm 29.8 1009 10 16.09344 0 0
6:55 pm 18:55 Sunny 77 25.2 66 19 69 69 Calm 29.8 1009 10 16.09344 0 0
7:15 pm 19:15 Sunny 77 25.2 67 19.6 71 71 E 3 6 29.8 1009 10 16.09344 0 0
7:35 pm 19:35 Sunny 76 24.7 68 20 75 75 Calm 29.8 1009 10 16.09344 0 0
7:55 pm 19:55 Sunny 76 24.2 69 20.5 80 80 Calm 29.8 1009 10 16.09344 0 0
8:15 pm 20:15 Sunny 73 22.8 69 20.5 87 87 E 7 11 29.8 1009 10 16.09344 0 0
8:35 pm 20:35 Clear 71 21.5 68 20 91 91 E 6 9 29.83 1010 10 16.09344 0 0
8:55 pm 20:55 Clear 70 21.1 67 19.6 91 91 E 5 7 29.85 1011 10 16.09344 0 0
9:15 pm 21:15 Clear 70 20.9 67 19.7 93 93 E 6 9 29.85 1011 10 16.09344 0 0
9:35 pm 21:35 Clear 69 20.8 67 19.5 92 92 E 5 7 29.85 1011 10 16.09344 0 0
9:55 pm 21:55 Clear 69 20.5 67 19.5 94 94 E 7 11 29.85 1011 10 16.09344 0 0
10:15 pm 22:15 Clear 68 20.2 67 19.2 94 94 E 8 13 29.88 1012 10 16.09344 0 0
10:35 pm 22:35 Clear 68 20.1 67 19.5 96 96 E 8 13 29.88 1012 10 16.09344 0 0
10:55 pm 22:55 Clear 68 20 67 19.5 97 97 E 8 13 29.88 1012 10 16.09344 0 0
11:15 pm 23:15 Clear 67 19.7 67 19.5 99 99 E 10 17 29.88 1012 10 16.09344 0 0
11:35 pm 23:35 Clear 67 19.5 67 19.2 98 98 E 9 15 29.88 1012 10 16.09344 0 0
11:55 pm 23:55 Clear 67 19.2 66 19 99 99 E 9 15 29.88 1012 10 16.09344 0 0

Powered by AerisWeather